ELEKTRO-L 4

Last updated on Tue Sep 16 2025 00:02:51 GMT+0000 (Coordinated Universal Time)

1 55506U 23016A 25258.55398115 -.00000075 00000+0 00000+0 0 9993 2 55506 0.0608 347.1317 0002167 230.3074 142.5474 1.00270862 9572
UTC large
Height (km)
Speed (km/s)
/
Latitude / Longitude
Inclination (degrees)
Orbital Period (minutes)
Azimuth
Elevation
Range (km)
Doppler Factor

Next 0 passes for location: London (51.5072 / 0.1276)

Sorry there are no passes over London.